When you browse on this site, cookies collect data to enhance your experience and personalize the content and advertising you see.
Visit our Privacy Policy to learn more. By continuing to use the site, you agree to this use of cookies and data.
EN

Hourly Weather Bet Shemesh

Today, 9 August, Sunday

Time Temperature Precipitation Wind Pressure Humidity
00:00 +25°C° 0 mm 3 mps 734 mmHg 88%
01:00 +25°C° 0 mm 3 mps 734 mmHg 88%
02:00 +25°C° 0 mm 3 mps 733 mmHg 88%
03:00 +25°C° 0 mm 3 mps 733 mmHg 86%
04:00 +25°C° 0 mm 4 mps 733 mmHg 84%
05:00 +25°C° 0 mm 4 mps 734 mmHg 82%
06:00 +26°C° 0 mm 4 mps 734 mmHg 74%
07:00 +27°C° 0 mm 5 mps 734 mmHg 67%
08:00 +28°C° 0 mm 5 mps 734 mmHg 60%
09:00 +30°C° 0 mm 6 mps 734 mmHg 54%
10:00 +32°C° 0 mm 7 mps 734 mmHg 48%
11:00 +34°C° 0 mm 7 mps 734 mmHg 42%
12:00 +33°C° 0 mm 8 mps 734 mmHg 43%
13:00 +33°C° 0 mm 8 mps 734 mmHg 43%
14:00 +33°C° 0 mm 8 mps 734 mmHg 44%
15:00 +32°C° 0 mm 7 mps 734 mmHg 48%
16:00 +30°C° 0 mm 7 mps 733 mmHg 52%
17:00 +29°C° 0 mm 6 mps 733 mmHg 56%
18:00 +28°C° 0 mm 5 mps 733 mmHg 66%
19:00 +26°C° 0 mm 3 mps 733 mmHg 76%
20:00 +24°C° 0 mm 2 mps 733 mmHg 86%
21:00 +24°C° 0 mm 2 mps 734 mmHg 87%
22:00 +24°C° 0 mm 2 mps 734 mmHg 88%
23:00 +23°C° 0 mm 2 mps 734 mmHg 89%

Tomorrow, 10 August, Monday

Time Temperature Precipitation Wind Pressure Humidity
00:00 +24°C° 0 mm 2 mps 734 mmHg 89%
01:00 +24°C° 0 mm 2 mps 734 mmHg 88%
02:00 +24°C° 0 mm 2 mps 734 mmHg 87%
03:00 +24°C° 0 mm 2 mps 734 mmHg 87%
04:00 +24°C° 0 mm 2 mps 734 mmHg 86%
05:00 +24°C° 0 mm 2 mps 734 mmHg 86%
06:00 +25°C° 0 mm 3 mps 734 mmHg 78%
07:00 +26°C° 0 mm 3 mps 734 mmHg 71%
08:00 +28°C° 0 mm 3 mps 735 mmHg 63%
09:00 +29°C° 0 mm 4 mps 735 mmHg 56%
10:00 +32°C° 0 mm 4 mps 735 mmHg 49%
11:00 +34°C° 0 mm 5 mps 735 mmHg 42%
12:00 +34°C° 0 mm 6 mps 735 mmHg 41%
13:00 +34°C° 0 mm 6 mps 735 mmHg 41%
14:00 +34°C° 0 mm 7 mps 735 mmHg 41%
15:00 +33°C° 0 mm 6 mps 734 mmHg 45%
16:00 +32°C° 0 mm 6 mps 734 mmHg 49%
17:00 +30°C° 0 mm 6 mps 734 mmHg 54%
18:00 +28°C° 0 mm 5 mps 734 mmHg 63%
19:00 +26°C° 0 mm 3 mps 735 mmHg 72%
20:00 +24°C° 0 mm 2 mps 735 mmHg 81%
21:00 +24°C° 0 mm 1 mps 735 mmHg 83%
22:00 +23°C° 0 mm 1 mps 735 mmHg 85%
23:00 +23°C° 0 mm 1 mps 735 mmHg 86%

Day after tomorrow, 11 August, Tuesday

Time Temperature Precipitation Wind Pressure Humidity
00:00 +23°C° 0 mm 1 mps 735 mmHg 87%
01:00 +22°C° 0 mm 1 mps 735 mmHg 88%
02:00 +22°C° 0 mm 1 mps 734 mmHg 89%
03:00 +22°C° 0 mm 1 mps 734 mmHg 89%
04:00 +22°C° 0 mm 1 mps 735 mmHg 90%
05:00 +22°C° 0 mm 1 mps 735 mmHg 90%
06:00 +23°C° 0 mm 2 mps 735 mmHg 83%
07:00 +25°C° 0 mm 2 mps 735 mmHg 76%
08:00 +27°C° 0 mm 2 mps 735 mmHg 68%
09:00 +29°C° 0 mm 3 mps 735 mmHg 60%
10:00 +32°C° 0 mm 4 mps 736 mmHg 52%
11:00 +33°C° 0 mm 5 mps 736 mmHg 43%
12:00 +34°C° 0 mm 5 mps 735 mmHg 43%
13:00 +34°C° 0 mm 6 mps 735 mmHg 43%
14:00 +34°C° 0 mm 6 mps 734 mmHg 43%
15:00 +33°C° 0 mm 6 mps 734 mmHg 48%
16:00 +32°C° 0 mm 6 mps 734 mmHg 52%
17:00 +30°C° 0 mm 6 mps 734 mmHg 57%
18:00 +28°C° 0 mm 5 mps 734 mmHg 67%
19:00 +26°C° 0 mm 3 mps 734 mmHg 76%
20:00 +24°C° 0 mm 2 mps 735 mmHg 86%
21:00 +24°C° 0 mm 2 mps 735 mmHg 87%
22:00 +24°C° 0 mm 1 mps 735 mmHg 88%
23:00 +24°C° 0 mm 1 mps 734 mmHg 90%

12 August, Wednesday

Time Temperature Precipitation Wind Pressure Humidity
00:00 +24°C° 0 mm 1 mps 734 mmHg 88%
01:00 +24°C° 0 mm 1 mps 734 mmHg 87%
02:00 +25°C° 0 mm 2 mps 734 mmHg 85%
03:00 +24°C° 0 mm 2 mps 734 mmHg 85%
04:00 +24°C° 0 mm 2 mps 734 mmHg 84%
05:00 +24°C° 0 mm 2 mps 734 mmHg 84%
06:00 +26°C° 0 mm 2 mps 734 mmHg 78%
07:00 +27°C° 0 mm 2 mps 734 mmHg 72%
08:00 +28°C° 0 mm 3 mps 734 mmHg 65%
09:00 +29°C° 0 mm 3 mps 734 mmHg 60%
10:00 +32°C° 0 mm 4 mps 734 mmHg 54%
11:00 +33°C° 0 mm 4 mps 734 mmHg 48%
12:00 +34°C° 0 mm 5 mps 734 mmHg 48%
13:00 +34°C° 0 mm 5 mps 733 mmHg 47%
14:00 +34°C° 0 mm 6 mps 733 mmHg 47%
15:00 +33°C° 0 mm 6 mps 733 mmHg 52%
16:00 +32°C° 0 mm 6 mps 733 mmHg 57%
17:00 +30°C° 0 mm 6 mps 733 mmHg 62%
18:00 +28°C° 0 mm 4 mps 733 mmHg 71%
19:00 +27°C° 0 mm 3 mps 734 mmHg 80%
20:00 +25°C° 0 mm 1 mps 734 mmHg 89%
21:00 +25°C° 0 mm 1 mps 734 mmHg 89%
22:00 +24°C° 0 mm 1 mps 734 mmHg 89%
23:00 +24°C° 0 mm 1 mps 734 mmHg 90%

13 August, Thursday

Time Temperature Precipitation Wind Pressure Humidity
00:00 +24°C° 0 mm 1 mps 733 mmHg 90%
01:00 +23°C° 0 mm 1 mps 733 mmHg 91%
02:00 +23°C° 0 mm 1 mps 733 mmHg 92%
03:00 +23°C° 0 mm 1 mps 733 mmHg 91%
04:00 +23°C° 0 mm 1 mps 733 mmHg 91%
05:00 +22°C° 0 mm 1 mps 733 mmHg 91%
06:00 +24°C° 0 mm 1 mps 733 mmHg 82%
07:00 +27°C° 0 mm 1 mps 733 mmHg 73%
08:00 +29°C° 0 mm 1 mps 734 mmHg 64%
09:00 +31°C° 0 mm 2 mps 734 mmHg 56%
10:00 +34°C° 0 mm 3 mps 733 mmHg 48%
11:00 +36°C° 0 mm 4 mps 733 mmHg 40%
12:00 +36°C° 0 mm 4 mps 733 mmHg 41%
13:00 +36°C° 0 mm 5 mps 733 mmHg 41%
14:00 +36°C° 0 mm 6 mps 732 mmHg 41%
15:00 +35°C° 0 mm 6 mps 732 mmHg 45%
16:00 +34°C° 0 mm 5 mps 732 mmHg 49%
17:00 +33°C° 0 mm 5 mps 732 mmHg 53%
18:00 +30°C° 0 mm 4 mps 732 mmHg 63%
19:00 +28°C° 0 mm 3 mps 732 mmHg 74%
20:00 +25°C° 0 mm 2 mps 732 mmHg 84%
21:00 +25°C° 0 mm 1 mps 732 mmHg 83%
22:00 +25°C° 0 mm 1 mps 732 mmHg 82%
23:00 +24°C° 0 mm 1 mps 732 mmHg 81%

14 August, Friday

Time Temperature Precipitation Wind Pressure Humidity
00:00 +24°C° 0 mm 1 mps 732 mmHg 81%
01:00 +24°C° 0 mm 1 mps 732 mmHg 81%
02:00 +23°C° 0 mm 1 mps 731 mmHg 81%
03:00 +23°C° 0 mm 1 mps 732 mmHg 82%
04:00 +23°C° 0 mm 1 mps 732 mmHg 83%
05:00 +22°C° 0 mm 1 mps 732 mmHg 84%
06:00 +25°C° 0 mm 1 mps 732 mmHg 74%
07:00 +28°C° 0 mm 1 mps 732 mmHg 64%
08:00 +30°C° 0 mm 2 mps 733 mmHg 53%
09:00 +32°C° 0 mm 2 mps 733 mmHg 47%
10:00 +35°C° 0 mm 3 mps 732 mmHg 41%
11:00 +37°C° 0 mm 4 mps 732 mmHg 35%
12:00 +37°C° 0 mm 5 mps 732 mmHg 36%
13:00 +37°C° 0 mm 5 mps 732 mmHg 36%
14:00 +38°C° 0 mm 6 mps 731 mmHg 37%
15:00 +36°C° 0 mm 6 mps 731 mmHg 41%
16:00 +35°C° 0 mm 5 mps 731 mmHg 45%
17:00 +33°C° 0 mm 5 mps 731 mmHg 49%
18:00 +30°C° 0 mm 4 mps 731 mmHg 58%
19:00 +28°C° 0 mm 3 mps 731 mmHg 68%
20:00 +26°C° 0 mm 2 mps 732 mmHg 77%
21:00 +26°C° 0 mm 2 mps 732 mmHg 74%
22:00 +26°C° 0 mm 1 mps 732 mmHg 71%
23:00 +25°C° 0 mm 1 mps 731 mmHg 68%
Show more